Regional Weather Roundup
Issued by NWS

Home | Current Version | Previous Version | Graphics & Text | Print | Product List | Glossary On
Versions: 1 2 3 4 5 6 7 8 9 10 11 12 13 14 15 16 17 18 19 20 21 22 23 24 25 26 27 28 29 30 31 32 33 34 35 36 37 38 39 40 41 42 43 44 45 46 47 48 49 50
000
ASUS45 KSLC 010010
RWRUT

UTAH REGIONAL WEATHER ROUNDUP
NATIONAL WEATHER SERVICE SALT LAKE CITY UT
600 PM MDT MON AUG 31 2015

UTZ001>011-023>025-010100-

NORTHERN UTAH

CITY           SKY/WX    TMP DP  RH WIND       PRES   REMARKS
BRIGHAM CITY   SUNNY     85  26  11 W6        29.99F
HILL AFB       SUNNY     84  39  20 SW6       30.02F
LOGAN          SUNNY     84  32  15 SW7       29.99F
OGDEN          SUNNY     84  38  19 VRB5      29.99F
PROVO AIRPORT  MOSUNNY   86  48  26 VRB6      29.98S
SALT LAKE CITY MOSUNNY   86  39  19 N7        29.97F
VERNAL         PTSUNNY   75  46  35 S8        30.08S
WENDOVER       SUNNY     84  27  12 SE8       29.96F
HEBER CITY     MOSUNNY   82  37  20 SW10      30.06F
WEST JORDAN    SUNNY     84  41  21 NW10      30.01S

$$

UTZ012>022-026-027-010100-

SOUTHERN/CENTRAL UTAH

CITY           SKY/WX    TMP DP  RH WIND       PRES   REMARKS
BLANDING       CLOUDY    79  46  31 SW8       30.23S
BRYCE CANYON   PTSUNNY   75  47  36 S17G23    30.24F
CEDAR CITY     SUNNY     85  33  15 S14       30.07S
DELTA          SUNNY     88  31  12 NW6       29.99F
HANKSVILLE     MOSUNNY   82  45  26 SE13      30.04F
MILFORD        SUNNY     89  37  16 SW17G28   29.99F
MOAB/CYNLANDS  SUNNY     86  47  25 SW10G17   30.01F
PRICE          LGT RAIN  70  56  61 E8        30.13R
ST GEORGE      PTCLDY    97  46  17 W9        29.87F HX  93
KANAB          PTSUNNY   81  54  39 S8        30.11F

$$

REGIONAL REPORTS     COLORADO/ARIZONA

CITY           SKY/WX    TMP DP  RH WIND       PRES   REMARKS
CRAIG, CO      TSTM      62  47  57 NW16      30.24R
GRAND JUNCTION PTSUNNY   81  52  36 SE3       30.05F
RIFLE          PTSUNNY   78  51  38 NW3       30.13S
MONTROSE       CLOUDY    77  50  38 NW6       30.16R
CORTEZ         SUNNY     79  42  26 W13       30.16S
PAGE, AZ       PTSUNNY   86  50  28 S12       30.02F
GRAND CANYON   PTSUNNY   71  51  49 SW5         N/A
KINGMAN        MOSUNNY   95  48  20 SW16G22   29.93F HX  91
FLAGSTAFF      CLOUDY    65  53  65 E9        30.28S

$$

REGIONAL REPORTS    NEVADA/IDAHO/WYOMING

CITY           SKY/WX    TMP DP  RH WIND       PRES   REMARKS
LAS VEGAS, NV  MOSUNNY  101  40  12 S8G18     29.74F HX  96
ELY            SUNNY     84  27  12 SW12G21   30.07F
ELKO           SUNNY     86  29  12 W10       29.97F
POCATELLO, ID  SUNNY     81  24  12 W6        30.01F
BURLEY         SUNNY     80  32  17 VRB3      29.97F
EVANSTON, WY   MOSUNNY   76  29  17 W23       30.17F
ROCK SPRINGS   PTSUNNY   71  39  31 SW15      30.14S
KEMMERER       SUNNY    N/A N/A N/A W16G28    30.18S

$$


USA.gov is the U.S. government's official web portal to all federal, state and local government web resources and services.